STARLINK-32842, 62822

Orbit data source: Space-Track

STARLINK-32842, 62822 is a payload satellite owned by SpaceX/Seattle (US) in LEO that was launched on Fri, 24 Jan 2025 UTC via an FALCON 9 launch vehicle from the Air Force Western Test Range (AFWTR). Payload-class satellites include a variety of spacecraft equipped with specific instruments for various scientific and technological missions. These include communications satellites like Starlink; space stations such as the ISS; scientific satellites like the Hubble; Earth observation satellites from companies like Planet Labs, Umbra, and HawkEye 360; GPS; miniature CubeSats for education and research; and military/defense satellites.

Loading next visibility...
Identifier
62822, 2025-018S
Orbit
LEO
Country
Flag of USUS
Related business
Manufacturer
SpaceX/Seattle
Mission
Operational Commercial Communications
Bus & Motor
STARLINK V2M, Unknown motor
Mass
730 kg wet, ~700 kg dry
Launch date (UTC)
2025-01-24 (1 year ago)
Launch vehicle
FALCON 9
Launch site
Air Force Western Test Range (AFWTR)
Object type
Payload
Rocket body
Debris
Shape & HBR
Box + 2 Pan, 17.7 m
Radar Cross Section
33.884 m², Large (>1 m²)

Expand to show TLE details & history
Last TLE update: 9 hours ago

TLE from 9 hours ago
0 STARLINK-32842
1 62822U 25018S   26126.19638456  .00018143  00000-0  62331-3 0  9990
2 62822  53.1595  42.4316 0004175  81.8950 278.2524 15.30189897 71984
Epoch: 2026-05-06T04:42Z
TLE epoch observation values (Epoch: 2026-05-06T04:42:47.625Z)
Latitude
-0.00007°
Longitude
107.67277°
Altitude
475.735 km
Speed
7.629 km/s
True Right ascension
02h 49m 43s
True Declination
0° 00' 00"
Sunlit
Object was in daylight at epoch
Visualization orbit readout
Latitude
Unknown
Longitude
Unknown
Altitude
Unknown
Speed
Unknown
Apparent Right ascension
Unknown
Apparent Declination
Unknown
Sunlit
N/A
Visualization observer readout
Local Sidereal Time
21:30:39
Azimuth
Unknown
Elevation
Unknown
Doppler factor
Unknown
Orbital elements
Apogee altitude
478.363 km
Perigee altitude
472.64 km
Semi-major axis
6,853.639 km
Eccentricity
0.00042
Inclination
53.1595°
RAAN
42.4316°
Arg. of periapsis
81.895°
True anomaly
278.20505°
Mean anomaly
278.2524°
Eccentric anomaly
278.22873°
Mean motion
3.82526 °/min
Orbital period
94.11 mins
BSTAR
0.00062331
Loading maneuver chart data...
Computing Atmospheric mass density...
Loading historical data...
Loading historical data...
Loading historical data...
Loading historical data...
Loading historical data...
Loading historical data...
Loading historical data...

Documentation

Showing up to 5 results
|